Theta_e
366 364 366 365 364 359 351 345 322 330 327 316 319 321 319 334 333 329 329 332 327 336 339 341 340 339 333 331 334 336 335 331 333 324 322 337 351 353 356 357 358 360 359 361 361 362 362 365 366 365 365 364 364 364 364 363 363 363 362 363 363 363 363 363 363 363 363 364 364 363 364 363 364 363 364 363 363 362 362 362 362 362 361 361 361 361 360 360 361 360 360 360 360 359 360 360 360
365 365 365 365 361 357 338 345 326 321 321 318 317 325 325 332 330 328 328 331 330 337 343 341 340 340 342 340 339 339 336 340 338 336 340 345 350 353 357 359 358 357 360 360 359 359 360 363 366 365 364 364 363 362 363 363 363 363 363 364 363 363 362 363 362 363 363 363 364 364 363 363 363 364 364 364 363 364 363 362 362 362 362 362 362 361 361 360 359 360 360 360 360 360 359 359 359
364 365 365 366 355 349 345 341 319 318 315 311 318 323 331 326 326 331 334 337 339 342 341 339 341 342 339 341 334 334 330 343 343 342 340 347 344 347 354 357 358 358 358 357 358 357 359 363 366 364 364 364 363 363 363 362 361 361 362 363 363 362 363 363 363 364 363 364 363 364 363 363 364 363 363 363 363 363 363 362 362 362 362 361 361 360 359 361 361 360 359 360 360 360 359 359 359
367 366 358 356 340 348 335 332 324 320 315 316 316 327 327 328 330 333 338 339 339 338 339 337 335 345 338 332 335 340 337 338 343 342 339 342 345 349 352 356 360 359 358 357 357 358 358 364 364 364 364 364 363 363 363 363 363 363 363 362 363 364 364 363 364 364 364 363 364 363 364 363 363 364 363 362 362 362 362 362 362 362 362 362 361 361 360 359 360 361 360 359 359 360 360 360 357
364 362 361 351 341 332 332 325 323 323 316 321 318 327 328 331 332 335 338 342 341 338 338 335 335 343 344 341 343 332 332 341 345 347 342 346 350 349 351 356 356 356 355 356 356 357 359 364 364 364 364 364 364 363 363 363 363 363 364 362 363 363 363 364 364 364 363 363 364 364 364 364 363 363 362 362 363 362 361 362 362 362 361 361 361 361 361 360 358 359 359 359 359 358 360 360 359
364 359 360 353 338 347 336 324 319 320 324 328 322 326 331 334 335 335 338 342 342 340 341 338 333 336 336 340 345 337 345 339 343 348 345 344 348 350 350 351 351 352 353 355 357 360 361 366 365 364 364 364 363 363 363 363 363 363 363 363 363 363 364 363 364 364 364 364 363 364 364 364 365 363 361 360 362 361 361 360 360 360 360 361 360 360 360 358 361 356 360 358 358 359 357 358 359
357 355 354 348 344 345 323 321 320 322 327 333 328 329 332 334 335 336 336 337 339 342 343 337 341 340 333 342 344 349 351 351 350 351 346 347 350 349 348 348 350 349 352 356 360 360 361 366 365 365 365 364 363 364 363 364 363 363 363 363 363 362 363 363 364 363 363 363 362 363 364 364 364 363 364 364 362 362 361 360 357 360 359 358 359 358 359 358 358 359 358 357 360 358 358 357 358
364 346 344 334 332 331 324 323 323 326 327 334 334 333 333 335 336 336 334 333 332 333 338 340 340 336 334 346 332 347 356 358 357 359 348 350 350 347 346 348 346 346 352 356 360 361 368 366 366 365 365 364 364 365 363 363 364 363 361 363 363 363 362 362 362 363 364 364 363 363 364 365 361 364 362 365 363 365 364 363 362 361 361 360 360 360 359 359 358 358 359 359 358 360 360 359 358
359 349 351 336 326 330 323 322 324 329 330 336 336 340 339 337 337 334 331 334 336 338 338 339 339 332 334 338 336 347 352 358 362 364 349 349 347 347 347 347 346 347 350 356 360 362 362 367 366 366 366 364 363 365 365 363 363 364 364 362 362 363 362 363 362 363 363 364 364 362 363 363 364 362 362 362 362 361 364 363 364 364 364 363 363 362 361 361 361 359 359 359 359 359 359 359 360
348 348 334 331 327 320 323 324 323 325 328 333 334 334 337 337 334 336 333 333 334 337 338 343 341 333 337 333 337 343 345 353 361 362 349 347 347 347 347 346 346 346 354 359 360 359 362 369 365 366 366 365 364 364 365 364 365 364 364 364 363 362 363 363 363 362 363 364 364 364 363 364 364 363 363 360 364 361 360 360 362 364 363 363 363 363 363 363 362 361 361 360 359 360 360 360 360
339 346 345 328 320 318 319 322 326 329 332 333 335 339 338 338 335 334 336 334 337 335 338 342 335 334 334 331 334 347 350 352 355 351 358 353 349 347 346 347 346 347 356 356 356 357 361 364 368 366 367 367 366 363 365 365 364 366 365 364 364 364 363 364 363 363 362 363 363 363 364 364 364 364 363 362 363 363 363 363 363 364 364 363 363 363 363 362 362 363 362 362 361 360 359 360 360
334 328 336 320 317 318 319 321 325 328 332 333 334 338 338 334 334 333 335 333 337 337 336 340 330 337 331 332 335 344 348 352 356 355 355 355 348 348 348 348 348 350 354 354 355 357 359 363 365 368 367 367 367 365 365 365 364 365 366 366 364 365 365 364 364 364 363 363 363 363 362 363 363 363 363 363 364 363 362 362 362 362 361 362 362 364 363 363 362 361 361 361 361 361 361 360 361
331 330 325 320 318 320 322 321 324 327 330 330 334 337 342 335 331 333 333 336 336 334 335 342 341 340 329 333 341 345 347 354 357 353 352 354 353 349 349 348 349 349 350 356 354 353 356 362 363 365 366 368 368 367 367 364 365 365 366 366 365 365 365 364 364 365 365 365 365 365 365 365 365 365 365 365 364 364 364 364 364 364 363 364 364 363 364 364 364 363 362 361 361 362 362 362 360
331 329 324 319 324 320 319 319 324 321 323 331 336 338 336 335 335 336 338 334 335 334 340 344 342 340 333 336 339 342 347 354 355 356 351 351 350 349 348 346 348 348 348 350 352 351 355 358 359 362 367 367 367 368 368 368 368 367 366 365 365 366 366 366 366 367 366 366 365 364 364 363 365 366 365 364 364 364 364 364 364 364 364 364 364 364 363 364 363 363 362 362 361 361 361 362 362
330 330 325 321 319 320 322 318 319 320 321 332 337 336 334 338 339 338 339 334 335 341 344 348 343 341 328 330 332 341 348 353 356 355 351 353 350 350 349 349 347 348 345 348 349 351 355 353 359 360 366 365 366 366 367 368 368 368 367 366 365 366 367 366 363 364 363 361 362 361 362 363 364 365 366 366 365 365 365 364 364 364 364 364 364 364 364 364 364 363 363 362 363 363 361 362 361
332 327 324 319 317 318 319 320 323 321 321 331 338 336 336 339 342 337 339 341 338 344 344 337 347 337 340 337 339 345 351 355 356 355 351 351 352 352 349 347 346 346 345 348 348 352 354 352 357 359 362 361 364 364 365 366 367 368 368 367 366 365 364 363 363 362 362 363 362 362 363 363 364 364 366 364 365 365 365 365 364 364 364 363 364 363 363 363 363 363 363 363 361 362 361 361 360
333 328 319 318 314 317 319 320 322 317 324 329 332 334 332 333 339 342 345 345 338 339 342 344 341 348 343 344 349 352 353 354 356 349 350 350 349 345 348 349 348 344 344 346 348 349 352 351 355 359 362 361 361 362 363 364 366 368 364 364 363 363 362 363 363 362 362 362 362 362 363 363 364 364 362 361 363 363 364 366 364 363 363 363 363 363 362 362 361 363 363 362 362 361 361 361 361
327 320 318 316 317 317 322 323 325 328 326 327 329 331 334 330 336 338 342 338 339 339 338 344 348 347 350 349 350 352 352 351 347 343 343 344 345 343 342 346 347 345 345 346 346 344 346 353 349 352 357 360 360 365 365 364 363 363 366 364 365 365 363 363 362 361 363 361 362 361 359 361 363 363 363 364 361 361 362 362 363 363 364 364 363 362 361 360 361 362 362 362 362 361 361 358 359
323 321 320 316 320 322 329 329 330 329 326 328 329 330 332 332 335 336 333 335 335 335 337 342 341 345 349 350 350 349 349 351 351 347 345 346 347 343 345 348 351 350 350 351 352 356 353 354 356 356 357 360 366 368 366 364 362 365 365 362 363 361 362 363 363 364 364 361 360 360 360 359 361 364 363 363 362 361 362 363 362 363 364 363 362 362 361 361 361 361 362 361 360 359 357 359 358
325 322 318 320 325 325 328 329 328 331 330 327 328 329 331 334 336 338 334 333 337 332 332 336 337 339 344 349 350 350 352 352 349 347 347 346 347 349 348 348 347 354 350 354 353 359 359 360 357 362 357 359 364 364 365 359 360 361 359 364 362 361 361 361 362 362 362 360 359 359 359 360 361 363 361 362 360 362 361 363 363 361 361 361 361 360 360 360 360 360 359 360 361 359 358 358 358
326 322 318 321 324 323 325 328 330 330 331 330 328 329 327 330 336 335 333 331 332 335 338 337 338 341 343 346 347 347 348 346 346 345 343 345 347 348 353 352 350 356 353 355 355 356 361 363 364 362 359 362 363 362 360 360 361 359 360 361 361 360 357 359 360 361 360 359 360 362 362 362 361 362 360 359 360 361 361 360 359 360 360 357 357 356 357 356 356 356 357 359 359 358 356 356 357
325 322 324 325 326 323 327 330 331 330 335 331 327 325 326 332 332 331 333 328 327 334 339 342 343 344 344 344 344 346 347 345 344 346 344 347 349 343 346 346 353 353 354 351 354 356 358 360 362 362 363 362 361 360 363 364 362 360 360 358 358 359 360 362 360 360 358 361 361 359 361 360 361 359 357 360 361 362 360 359 361 362 363 357 358 355 356 354 352 352 352 354 354 357 355 353 357
320 324 325 326 326 325 328 328 327 328 328 327 325 327 330 328 330 333 335 332 335 341 342 343 344 345 345 346 346 345 343 342 344 345 343 346 347 350 350 349 351 353 350 350 355 359 361 359 360 361 362 361 361 362 361 360 358 359 356 358 357 357 358 358 357 358 357 356 358 359 357 357 358 358 358 359 358 358 354 356 358 361 359 357 356 353 351 352 352 351 353 351 355 354 352 349 351
324 320 325 324 327 326 329 330 333 333 328 327 328 329 327 328 325 331 329 338 339 342 344 344 344 346 345 343 344 346 346 344 344 348 351 347 348 349 349 349 349 351 354 351 354 357 360 358 359 360 361 362 361 359 359 359 358 358 355 357 358 361 359 358 359 357 357 358 355 356 359 355 357 356 357 360 356 354 352 352 355 361 360 357 356 354 352 351 351 354 352 351 357 355 354 354 353
324 322 325 327 327 326 328 332 333 335 333 330 328 326 327 329 329 332 331 335 340 340 340 342 343 344 341 341 343 347 346 345 344 347 348 348 352 351 350 351 354 354 351 350 350 354 358 359 359 358 360 360 360 359 357 360 359 359 359 358 359 361 359 358 357 355 355 357 356 353 355 358 355 357 357 357 359 354 353 352 354 358 356 357 356 355 353 351 352 352 353 350 352 354 355 353 351
324 325 328 327 327 329 331 332 329 328 329 336 331 327 329 329 331 328 330 331 338 339 344 341 341 340 341 342 345 347 347 346 347 347 348 349 348 345 347 347 353 354 354 354 354 354 358 362 359 358 360 360 359 360 360 358 356 357 359 360 360 361 360 360 357 358 355 356 355 358 360 359 359 357 356 360 355 355 355 356 356 358 354 355 353 350 351 353 350 354 355 352 350 349 351 350 350
328 327 328 327 327 328 330 327 328 330 330 333 328 327 327 329 329 321 332 334 339 337 335 339 340 340 341 343 346 347 346 345 344 347 347 349 346 344 344 351 352 352 353 353 356 357 360 360 358 356 355 358 361 360 359 359 360 359 361 361 360 360 360 360 358 358 355 355 356 356 360 361 360 359 356 356 356 357 357 355 353 354 353 353 353 352 350 350 351 355 355 352 352 352 349 350 352
328 327 326 327 328 327 328 329 330 331 330 333 331 327 329 328 327 324 329 335 337 336 336 334 336 340 340 342 343 347 347 346 346 348 345 346 343 346 347 347 351 352 353 354 356 358 356 358 357 355 354 358 357 359 361 360 358 357 359 361 360 361 363 360 360 359 360 362 360 361 361 362 360 360 358 356 356 357 357 357 354 352 352 355 353 352 353 355 354 356 352 350 350 350 351 351 351
326 325 323 323 327 324 328 327 329 333 328 334 334 328 325 326 322 327 331 335 331 332 333 337 336 335 340 338 339 342 345 346 347 347 347 349 344 347 346 349 349 350 353 356 356 355 355 356 355 356 356 356 358 356 359 363 360 358 359 362 360 360 362 360 360 359 361 363 362 362 360 360 362 359 362 361 360 357 358 356 354 353 352 355 352 351 354 354 352 354 354 350 352 351 352 352 351
325 327 329 321 321 321 327 329 329 331 335 337 334 315 319 323 327 329 333 332 332 331 332 333 336 335 335 338 338 339 345 346 344 344 348 348 344 349 347 351 352 352 353 355 356 356 356 358 355 356 359 357 359 361 363 361 363 361 361 361 363 364 363 363 362 364 362 362 362 361 362 362 363 363 362 360 360 358 356 355 355 356 355 353 354 356 354 355 353 353 352 354 354 353 352 351 351
320 324 324 319 317 315 325 327 327 327 333 332 331 317 319 323 325 331 333 332 332 329 331 331 331 335 337 336 336 339 341 345 346 343 346 348 348 348 347 350 352 352 353 353 352 354 358 358 358 355 356 357 358 358 360 360 360 360 359 360 360 363 362 359 358 360 360 362 360 363 363 362 362 362 363 362 359 359 358 358 357 355 354 355 354 356 355 356 356 353 356 352 353 352 353 351 350
323 316 313 320 316 317 323 328 325 323 328 330 326 318 318 323 326 330 335 337 333 333 331 330 332 333 333 335 338 336 339 345 347 349 349 351 353 350 351 351 352 352 352 353 353 354 356 359 359 357 357 355 357 359 359 362 361 364 361 360 361 362 361 359 360 365 361 363 364 361 361 365 364 363 363 364 362 359 358 356 358 359 356 355 355 355 356 355 355 355 355 354 350 350 351 351 353
322 315 314 314 315 314 318 325 327 328 327 327 325 316 321 321 327 327 330 333 332 331 329 329 331 333 334 334 335 336 336 341 344 348 349 350 352 352 351 352 352 351 350 352 352 354 356 358 358 357 356 357 357 358 360 359 361 362 360 360 360 361 361 359 361 362 362 364 363 361 364 362 363 364 361 360 363 360 357 354 355 353 356 356 357 356 355 354 353 352 352 353 351 349 348 347 351
314 317 312 317 312 314 314 323 325 328 327 321 324 320 320 323 326 328 330 331 332 328 330 329 331 331 332 335 335 335 340 340 343 343 347 350 353 353 354 355 354 353 353 353 354 355 355 357 357 358 358 357 359 360 360 360 361 362 361 361 362 361 361 362 363 361 360 359 360 360 363 363 363 364 364 361 360 361 359 354 356 354 355 355 357 354 358 357 354 352 349 351 350 349 348 346 348
309 310 309 311 314 314 314 315 321 327 326 320 323 321 320 323 326 328 329 330 331 330 329 329 330 330 332 334 335 339 340 339 339 346 347 351 351 351 353 352 351 354 355 355 356 357 357 357 358 359 357 358 359 361 361 360 361 361 359 360 360 361 362 363 361 357 357 359 357 361 363 363 364 362 362 363 365 361 361 361 358 358 355 352 355 357 355 356 354 353 351 350 351 352 350 349 350
312 311 310 310 310 311 313 318 323 324 320 318 318 317 321 323 325 328 329 329 331 328 331 330 330 330 334 333 333 333 343 341 344 346 348 348 348 347 348 352 353 354 355 356 356 356 355 355 356 357 358 357 358 358 358 355 355 356 355 357 354 357 364 358 357 354 356 356 358 361 361 361 361 360 360 360 360 359 357 356 357 357 358 362 360 358 356 354 355 351 351 348 350 352 354 353 353
314 313 312 311 310 312 318 320 322 324 320 320 320 321 323 323 325 327 329 329 329 330 328 329 331 331 333 333 334 337 340 340 345 348 349 347 348 348 349 352 352 354 354 354 353 353 354 354 355 355 357 358 357 355 354 353 351 353 356 350 352 352 354 354 353 355 355 356 360 359 360 358 359 359 359 359 358 358 357 357 356 356 355 355 354 353 356 357 357 351 352 355 350 348 349 354 353
314 312 311 310 312 310 316 320 322 324 316 321 323 321 321 324 326 327 330 328 327 329 329 330 330 331 332 333 336 335 340 346 344 346 347 346 345 349 350 350 353 349 350 352 352 352 354 356 355 356 357 357 358 357 357 357 355 352 350 348 346 345 348 348 348 352 354 356 358 358 357 358 356 358 356 358 357 357 355 354 355 355 354 353 354 354 354 354 355 353 356 354 357 351 350 351 347
314 312 311 310 311 314 316 319 320 322 317 319 321 318 319 323 326 328 328 327 329 330 332 331 332 332 333 334 337 340 342 340 344 345 346 347 346 347 348 348 348 348 349 350 352 352 352 353 354 356 357 356 355 355 355 355 356 356 353 351 349 348 352 352 350 353 356 357 356 357 357 357 354 355 354 354 351 353 354 354 353 353 353 353 351 350 351 349 350 349 350 348 345 349 352 350 348
312 311 310 308 311 310 310 316 319 323 317 320 321 317 319 326 328 328 330 329 330 332 336 332 332 332 333 334 335 338 339 342 339 340 340 344 344 347 348 347 347 347 348 349 350 350 351 352 355 356 358 353 354 355 356 356 357 359 359 358 356 351 349 352 353 353 353 353 352 354 356 356 353 352 352 350 351 353 353 352 352 352 351 352 350 349 349 345 349 350 348 347 347 341 343 345 352
314 313 311 309 311 311 311 315 318 321 321 319 317 318 321 323 323 325 329 331 332 332 335 335 335 335 336 337 338 341 341 342 342 344 346 344 343 346 347 347 347 345 345 347 348 349 351 353 355 355 353 350 350 353 354 357 358 357 358 357 355 353 350 349 347 346 348 350 349 350 354 356 356 353 353 350 351 351 353 353 352 350 351 350 350 348 347 343 346 346 346 346 345 343 340 341 346
311 314 314 313 313 312 313 316 315 313 314 318 316 308 310 321 323 324 327 327 327 332 331 335 335 336 335 334 338 340 345 347 344 344 342 344 342 345 347 346 343 342 343 347 348 349 352 349 349 351 352 351 348 351 355 355 354 352 350 347 345 346 344 344 344 344 344 347 348 351 352 352 353 354 357 354 351 351 351 352 351 350 349 349 349 346 349 347 345 344 344 344 344 345 343 342 338
309 311 315 315 314 313 312 312 312 310 307 315 318 307 305 319 320 323 325 326 327 329 330 334 335 334 335 336 338 338 344 344 346 346 345 341 344 346 344 343 341 340 342 345 347 348 348 349 351 350 352 351 351 353 354 354 351 350 347 344 343 343 342 346 351 350 351 352 351 352 354 356 351 353 356 356 353 352 353 352 349 348 347 347 348 346 343 339 339 343 345 344 344 347 346 341 338
308 316 317 316 315 313 313 313 313 311 315 318 317 314 310 309 317 324 326 325 325 327 329 333 334 333 334 336 337 339 344 344 339 341 343 343 343 345 345 346 345 344 345 347 346 346 346 347 346 349 351 351 352 352 352 352 350 349 348 345 346 342 340 344 347 347 350 348 347 347 347 348 347 349 354 354 351 350 352 351 350 349 345 345 345 342 340 340 341 344 345 345 347 347 345 342 341
311 316 317 315 315 315 314 312 310 312 311 308 312 315 311 310 318 325 325 321 323 325 329 331 331 333 335 336 336 340 343 339 339 340 341 342 345 346 347 346 348 344 342 342 344 343 345 348 350 351 351 351 351 351 350 350 350 349 347 344 345 344 344 344 343 344 344 345 344 345 346 344 344 345 345 347 346 349 348 347 348 347 343 343 343 342 341 340 339 342 343 342 342 343 343 346 345
316 318 318 317 316 315 314 312 311 312 310 306 309 313 306 309 316 318 323 320 320 322 328 330 330 330 333 335 338 342 340 338 341 342 340 343 346 348 348 347 346 342 342 345 346 347 347 348 348 349 348 349 350 350 349 349 349 349 347 346 343 344 345 346 345 344 346 343 343 342 343 344 341 339 341 344 345 344 343 343 342 342 341 340 343 342 341 342 341 343 343 342 344 343 344 343 344
318 318 315 314 314 313 314 314 314 311 305 307 311 311 310 305 315 316 317 317 322 324 327 329 330 330 331 335 336 338 335 336 336 337 343 344 347 347 348 345 344 342 342 345 344 345 345 346 347 346 348 349 349 348 348 347 348 347 346 345 343 342 342 341 343 340 339 340 339 337 338 340 340 337 340 342 340 339 339 343 338 338 341 343 344 342 340 340 340 342 342 344 342 343 343 343 344
317 314 312 311 310 314 313 314 316 305 302 309 311 311 312 302 309 317 321 326 325 326 327 329 329 331 334 335 338 336 336 336 337 340 343 342 343 342 343 344 344 342 344 342 342 343 344 345 346 344 346 347 347 347 347 346 345 345 344 343 341 342 341 339 340 336 336 338 337 337 340 341 337 337 339 338 336 334 340 342 341 340 341 340 340 342 342 342 340 342 342 343 342 342 345 344 344
314 312 311 304 303 307 303 306 302 303 302 309 311 312 309 308 314 319 323 325 324 324 327 330 331 334 334 337 333 333 334 336 336 339 342 340 337 337 340 340 342 340 342 343 341 342 343 344 344 343 344 346 347 347 345 344 343 342 343 341 341 343 341 339 340 337 335 336 337 336 337 338 338 337 334 333 333 334 337 338 338 339 338 340 342 341 341 342 342 341 342 342 344 342 342 342 341
312 309 308 304 300 301 299 302 304 304 308 311 310 313 307 313 317 322 321 323 325 328 329 334 336 334 332 334 334 333 335 337 337 340 337 337 336 337 338 341 342 341 340 341 342 343 342 341 343 343 343 345 344 344 343 342 341 341 342 341 340 340 340 338 338 337 334 338 338 337 336 336 338 333 331 333 334 335 335 336 338 338 340 340 340 340 340 341 341 340 340 340 339 341 341 341 340
312 314 310 307 305 301 298 301 298 300 302 306 311 306 310 305 314 324 327 328 331 332 334 336 333 333 338 333 335 335 336 338 339 337 334 336 337 338 340 342 341 341 341 340 343 344 342 342 342 342 342 341 340 340 341 340 341 340 341 342 341 339 339 337 337 340 339 336 336 333 337 334 332 334 339 339 340 338 337 338 338 338 338 338 338 338 336 338 339 340 340 339 339 336 338 338 337
313 314 314 308 305 310 302 304 303 303 303 302 306 306 314 317 327 329 331 329 328 332 334 334 335 337 339 335 335 333 335 337 339 336 334 336 338 337 341 341 341 341 341 342 342 342 341 342 343 343 341 340 340 339 339 340 341 342 340 340 338 338 339 336 339 339 339 338 335 336 332 334 335 334 337 338 336 336 336 337 337 338 337 335 336 336 335 336 337 337 336 336 336 335 335 336 335
310 311 306 309 315 311 306 307 308 308 304 302 307 313 318 325 327 327 329 329 327 327 332 334 335 336 338 335 336 332 337 336 336 336 334 334 336 338 339 338 338 338 339 341 341 341 342 341 341 341 339 339 338 338 338 338 340 338 338 338 336 335 331 330 329 330 331 335 337 334 330 332 332 335 335 335 336 337 337 335 334 333 335 334 334 334 333 334 336 335 334 334 333 331 335 334 334
311 306 310 316 317 315 309 301 305 302 298 301 306 307 310 311 308 327 327 327 328 328 328 330 334 337 337 335 335 335 335 336 337 337 337 337 338 338 337 335 336 339 340 341 342 341 342 341 340 337 337 337 336 337 337 338 337 337 335 335 333 333 330 330 332 330 331 334 335 332 333 330 333 334 334 335 335 334 337 336 333 333 332 333 332 331 333 331 333 332 332 333 330 331 332 333 334
312 310 317 308 304 303 309 305 297 297 298 300 304 309 309 312 314 322 323 326 327 329 329 330 330 334 336 333 334 334 335 336 336 336 337 338 338 341 335 334 337 340 341 341 341 341 340 339 337 338 338 337 337 336 337 338 337 335 335 333 331 331 331 332 333 332 332 333 329 330 330 333 334 334 334 333 333 332 332 332 333 330 331 330 329 329 331 330 330 330 330 327 327 328 329 330 331
317 317 312 315 310 306 304 305 306 304 299 298 300 308 306 317 317 319 322 328 329 329 330 330 333 336 336 330 330 330 331 332 336 337 338 338 338 336 336 336 336 337 338 339 340 341 340 340 339 338 339 338 336 336 337 336 336 335 333 334 334 334 334 333 331 329 325 327 328 331 332 330 332 332 332 332 331 331 330 328 328 327 327 327 326 325 327 328 326 328 327 325 324 327 326 328 327
309 309 309 310 310 313 311 310 306 302 300 300 298 298 312 321 327 326 323 328 332 332 332 333 334 335 334 331 330 331 332 336 337 338 337 338 338 336 336 337 338 340 340 339 339 339 339 339 336 334 333 332 333 333 333 334 337 332 332 332 331 331 330 332 330 327 325 326 330 331 330 331 333 333 331 330 330 331 328 326 328 327 326 326 326 325 323 325 325 326 326 326 329 325 327 324 327
310 309 308 309 307 305 301 300 309 306 303 301 300 300 314 324 332 329 331 334 334 334 333 333 334 336 333 331 329 330 333 336 337 339 337 338 337 337 338 339 340 339 338 337 339 340 339 335 333 332 331 330 330 330 332 334 331 333 329 328 330 331 330 330 329 330 327 327 325 328 329 331 328 331 331 328 327 327 327 324 326 325 326 324 325 324 322 322 321 323 323 322 322 323 325 325 327
Wind_Speed
11 9 8 6 3 3 2 0 2 2 1 1 1 1 3 1 5 3 7 2 3 1 2 5 8 5 12 9 16 16 13 13 8 2 6 7 12 14 16 16 17 17 15 14 13 13 13 13 13 14 15 14 14 15 14 13 14 13 13 12 12 11 9 8 9 9 10 9 9 9 9 8 8 8 8 7 8 8 8 9 9 9 9 9 9 9 9 8 8 8 8 8 7 7 7 7 6
9 9 7 6 4 3 1 2 2 1 2 3 3 3 3 4 4 7 7 8 3 2 5 7 12 12 13 13 9 11 16 12 10 9 10 12 15 13 16 17 16 17 16 14 14 13 12 13 12 13 14 14 14 14 15 14 13 13 12 12 11 11 11 9 8 8 9 9 9 9 9 8 8 8 8 7 7 7 6 7 7 8 8 8 8 8 8 8 7 7 7 7 7 6 6 6 6
8 7 4 3 4 2 3 2 2 3 2 5 3 3 4 6 7 6 7 7 5 4 9 9 11 11 10 12 17 14 7 8 13 9 10 15 13 12 16 17 15 16 16 13 13 13 11 12 12 14 15 14 13 14 14 14 13 13 12 12 11 11 10 10 9 9 8 9 9 9 9 9 8 8 7 7 7 6 6 6 6 6 7 7 6 6 7 6 6 6 6 5 6 6 6 5 5
8 7 6 6 1 3 2 2 3 3 5 5 5 2 7 7 8 8 6 12 15 18 9 7 7 7 9 11 6 7 5 5 6 6 6 9 8 16 16 16 15 13 13 11 12 12 12 13 14 15 14 14 14 13 14 14 14 13 12 12 12 10 10 10 10 9 9 9 9 9 9 8 9 8 7 7 6 6 6 6 5 5 5 5 5 6 5 5 5 5 5 5 4 4 5 5 4
8 6 5 4 1 1 2 3 5 6 8 5 6 2 8 7 8 7 7 9 10 11 7 1 1 4 9 8 5 3 2 3 6 5 1 9 11 12 17 17 14 13 12 13 13 13 13 17 15 14 14 14 14 13 13 13 13 13 13 11 11 11 10 10 10 9 9 9 9 9 8 9 8 7 7 6 6 6 5 5 5 5 4 3 4 4 4 4 3 4 3 4 3 2 3 3 4
8 4 2 2 2 5 4 3 2 10 9 6 7 6 7 7 7 10 8 9 10 9 6 6 2 2 5 7 5 3 2 1 1 6 4 10 14 14 14 12 12 12 13 12 12 11 13 17 16 15 14 14 14 13 13 12 11 13 12 12 11 11 10 10 9 9 9 9 8 8 8 8 8 8 7 6 7 5 5 4 4 4 4 3 2 3 4 3 3 2 4 3 3 3 2 2 2
6 2 1 3 4 3 4 6 8 9 9 8 8 6 11 8 4 7 6 7 8 9 6 2 3 7 7 3 6 4 3 3 3 2 6 11 12 13 13 12 12 13 13 12 12 12 15 17 16 15 14 13 13 13 12 12 12 11 11 11 11 10 10 9 8 8 7 7 7 7 7 7 7 7 8 8 8 7 7 6 6 6 5 5 4 4 3 3 3 3 2 4 3 1 4 2 2
6 3 5 3 3 3 2 6 9 7 5 7 8 6 11 7 9 10 10 5 6 3 4 4 3 8 6 2 4 5 3 2 9 13 9 9 11 12 12 11 11 12 13 12 11 11 16 17 16 15 14 13 12 12 12 11 11 11 10 10 9 9 9 8 8 7 7 7 6 6 6 7 6 6 6 7 7 7 7 8 7 7 7 7 7 7 6 6 6 6 5 4 4 5 3 4 3
2 8 3 6 4 6 5 7 8 10 7 8 10 10 14 12 13 11 7 3 4 6 4 3 4 3 5 10 8 5 3 10 10 14 10 11 9 10 9 11 10 10 12 12 12 12 12 15 15 14 14 12 12 11 11 10 10 10 11 10 9 8 9 9 8 8 7 7 7 6 6 6 6 7 7 6 6 7 7 7 8 7 7 8 8 8 8 8 7 7 7 7 6 6 6 6 6
7 6 5 4 6 8 7 7 7 10 9 9 7 8 10 10 11 10 7 6 7 6 5 3 7 10 7 10 7 4 5 16 14 12 12 12 11 9 11 11 12 12 13 13 12 12 10 15 15 14 13 12 12 12 11 11 10 10 10 10 10 9 9 9 9 9 9 9 8 8 8 8 8 8 8 7 8 7 8 7 8 9 8 9 9 9 9 9 8 8 9 8 8 8 7 7 7
4 7 6 6 6 8 9 7 8 8 10 7 8 15 14 14 14 8 8 7 3 3 5 5 10 11 7 2 1 5 8 10 13 4 4 7 9 10 10 11 11 13 14 14 13 11 11 12 16 14 13 12 12 11 11 10 10 10 9 9 9 10 10 9 9 9 9 9 8 8 9 9 9 8 9 8 8 9 9 10 9 9 8 8 9 9 9 9 9 9 9 9 9 8 9 9 9
5 4 5 4 9 9 9 8 8 9 12 11 10 11 9 16 8 5 7 8 6 8 7 2 5 9 7 5 0 4 8 10 5 2 3 3 7 8 9 8 10 12 13 13 13 11 12 11 11 13 13 13 13 11 10 10 10 10 10 9 9 9 8 8 8 8 8 8 8 9 9 9 9 9 9 10 10 10 10 9 9 9 9 8 7 7 8 9 10 10 10 10 10 10 9 10 10
6 5 2 5 8 8 8 9 6 10 10 11 9 9 14 14 10 6 7 7 6 7 6 6 9 4 5 5 2 5 5 6 9 2 2 6 4 6 6 7 7 9 10 14 12 12 13 11 10 10 11 14 12 11 10 9 8 8 8 7 7 7 7 7 7 8 8 8 9 10 10 11 10 11 11 11 11 10 10 10 10 10 10 9 8 8 8 7 7 6 5 5 8 9 9 9 11
7 6 6 7 8 11 10 10 8 10 10 10 8 11 16 9 7 7 6 9 10 9 3 3 5 11 10 5 2 2 1 6 8 7 1 1 3 4 6 7 9 8 10 11 12 13 13 11 10 9 10 9 7 8 8 8 8 7 7 6 6 6 7 7 8 9 9 9 9 8 7 8 9 10 10 9 9 10 10 10 10 10 11 11 11 11 10 10 10 9 9 9 9 10 10 11 12
3 6 6 7 9 8 10 8 11 11 10 9 7 10 14 12 11 10 10 10 8 7 7 5 4 3 4 5 3 4 3 5 8 5 1 3 1 2 2 3 7 7 6 9 9 13 12 11 10 9 8 7 7 6 6 7 8 7 6 6 6 7 8 8 6 2 2 2 5 5 7 10 11 11 11 11 11 11 12 12 12 12 12 13 12 12 12 12 12 11 11 11 11 11 11 12 13
5 4 6 8 10 10 10 11 10 10 9 11 6 11 18 13 10 11 9 9 8 6 2 6 4 5 5 7 7 7 4 4 7 4 1 0 1 1 2 2 4 6 6 7 7 10 7 10 9 8 8 7 6 6 6 6 9 9 8 6 6 4 2 3 4 5 6 7 8 8 9 10 10 11 13 10 12 12 12 11 11 12 12 12 12 12 13 13 13 12 12 13 13 13 13 13 14
4 8 7 8 11 11 10 10 10 10 9 10 11 10 14 10 7 8 8 10 13 11 12 9 8 7 10 8 8 5 3 5 5 2 2 3 3 2 1 2 1 3 3 2 7 5 7 6 9 8 6 5 5 4 3 5 4 6 3 3 1 2 4 6 6 7 8 8 8 8 9 7 7 5 5 6 10 8 10 11 11 11 11 11 12 13 13 13 12 13 12 12 13 14 14 15 14
8 8 8 9 9 11 11 11 10 9 9 10 11 12 19 11 4 6 10 13 13 13 14 11 10 9 9 8 5 4 3 3 3 2 4 4 4 3 5 3 4 3 1 2 4 2 5 5 11 8 5 6 3 5 4 4 5 6 4 3 4 5 5 7 6 5 6 5 9 6 5 5 5 6 6 8 6 8 8 11 11 12 12 12 12 12 13 13 14 14 14 14 14 14 15 7 7
7 9 7 9 9 10 7 6 7 6 11 10 11 14 15 15 9 2 7 8 10 12 12 11 11 8 6 6 6 5 4 2 4 5 6 8 6 2 3 2 9 10 15 12 14 20 14 8 13 10 8 5 6 5 4 5 5 3 3 3 3 3 4 6 5 5 4 4 6 5 5 5 6 5 5 7 6 8 7 8 11 13 14 14 14 14 14 14 14 14 15 14 14 14 8 6 5
7 8 7 8 9 9 10 10 10 11 9 11 11 13 14 19 14 7 12 11 10 10 7 10 10 9 6 6 5 3 2 3 5 4 4 5 4 7 5 5 4 5 12 9 8 5 8 5 5 1 3 4 3 1 2 2 2 1 1 1 3 3 4 4 5 5 4 4 4 4 5 5 6 3 9 12 10 6 6 10 12 14 13 12 12 9 10 12 15 16 16 14 11 7 5 6 6
5 8 8 9 11 9 11 10 8 8 9 8 11 12 14 14 13 11 11 12 9 6 6 5 7 6 6 3 3 1 2 3 3 2 3 4 7 3 3 4 4 4 10 5 4 3 4 3 5 4 2 1 2 3 4 2 1 1 1 2 1 2 2 3 4 5 4 4 5 5 6 6 5 5 5 4 5 5 3 3 4 4 1 0 3 2 4 5 7 6 7 8 6 6 6 7 6
9 11 9 10 10 11 10 7 2 9 6 8 13 13 14 13 16 16 13 8 4 5 4 5 5 5 5 5 4 4 5 5 4 5 3 8 2 4 4 4 8 8 7 4 4 1 2 4 6 2 5 2 4 2 3 2 2 2 2 3 1 2 3 2 3 3 4 4 4 6 5 5 4 4 4 3 3 3 4 4 4 3 3 2 1 3 3 2 6 7 10 6 5 6 7 6 7
7 7 10 9 10 11 8 9 12 11 9 11 12 12 11 13 15 17 17 8 2 4 4 5 5 4 6 6 6 5 2 2 5 8 13 3 5 4 6 6 2 6 6 3 1 2 2 4 2 3 4 3 4 4 4 3 2 2 3 1 2 3 3 3 3 2 2 4 6 3 6 6 4 4 4 4 3 5 6 7 6 3 3 3 2 2 4 4 4 7 4 6 5 4 4 5 4
8 7 7 11 11 12 11 11 12 9 9 11 11 11 12 11 15 12 16 18 15 10 6 4 4 5 4 1 4 6 7 10 12 7 5 9 9 7 4 8 6 2 5 1 5 2 3 1 1 2 3 3 3 2 3 3 3 2 2 3 3 3 2 2 2 3 4 2 3 5 4 6 5 3 3 2 2 2 3 7 8 3 3 2 1 1 3 4 5 6 5 6 5 4 4 6 6
7 8 6 9 11 11 11 11 9 6 8 9 10 11 12 12 12 12 15 15 17 21 12 9 7 6 3 4 7 7 7 5 6 7 5 4 10 8 10 5 4 4 5 4 4 3 1 1 2 3 4 4 3 2 2 3 3 3 3 4 4 4 3 2 1 2 3 1 4 6 7 4 4 3 3 2 2 3 4 6 5 3 4 3 3 3 3 5 4 5 4 5 7 5 4 3 4
7 6 8 8 9 9 8 10 10 10 6 4 6 10 11 14 16 13 11 11 11 14 21 23 22 19 16 13 10 7 5 3 5 10 5 6 10 15 9 4 0 6 5 5 4 3 1 2 6 5 3 3 3 2 2 2 2 3 4 4 3 3 2 3 3 3 2 2 4 4 3 3 2 3 3 2 2 4 3 2 3 3 5 6 5 5 3 4 4 5 3 4 4 5 2 4 5
4 5 7 8 6 8 6 11 10 7 6 4 6 6 4 2 3 7 7 8 8 8 8 9 9 8 8 7 6 5 5 5 5 7 7 9 12 11 4 1 4 6 5 4 5 4 4 5 6 4 2 2 2 1 2 2 3 3 3 2 2 1 3 2 2 1 4 5 3 6 3 3 2 2 3 3 4 3 2 3 4 4 2 4 2 3 2 3 6 4 1 3 4 1 5 6 4
6 8 5 6 7 7 6 8 10 7 5 4 3 5 7 11 9 7 7 5 6 6 8 9 8 5 5 6 5 3 4 5 8 4 8 9 11 10 4 3 4 5 4 4 4 4 5 4 7 4 3 1 1 1 1 2 2 2 3 1 1 2 2 2 2 1 1 1 1 2 1 2 2 2 2 2 3 2 2 2 4 2 1 2 2 2 4 3 3 3 0 1 3 4 5 5 5
8 7 7 6 4 5 2 7 7 4 7 3 3 6 8 7 10 8 4 7 10 5 7 5 5 3 3 5 5 4 4 5 6 7 10 10 16 8 5 2 5 4 1 4 5 5 4 5 5 5 2 1 1 1 2 1 4 4 3 3 3 2 1 2 2 2 1 2 1 1 1 2 2 2 2 3 0 1 2 0 2 2 1 2 2 2 3 0 1 4 1 3 4 5 5 4 4
4 4 8 8 6 4 6 5 7 9 7 5 4 1 5 8 7 6 6 6 7 6 3 5 3 2 3 3 4 4 3 6 8 8 8 12 14 7 6 3 6 3 1 3 4 4 4 4 4 4 5 4 2 2 2 2 3 3 3 3 1 2 2 2 3 2 1 1 0 0 2 2 1 2 2 3 4 2 1 2 2 1 1 2 3 2 2 2 1 3 5 2 3 3 4 4 2
4 8 5 3 1 4 6 7 10 8 9 7 6 2 6 4 5 7 6 5 4 2 4 5 4 3 5 4 2 2 7 6 8 9 9 14 13 7 5 5 5 1 2 5 4 2 3 4 4 4 5 5 4 4 4 3 2 2 3 3 3 2 2 1 1 2 2 1 1 1 2 3 3 3 3 1 3 3 3 1 1 1 1 2 2 2 3 3 3 3 3 2 3 3 4 3 3
2 3 2 7 7 5 10 11 10 9 10 10 5 3 6 6 8 8 8 4 9 7 6 6 4 5 4 5 4 3 5 6 7 8 10 14 12 9 8 6 4 2 4 6 2 2 2 4 5 6 5 6 5 4 4 4 4 3 3 4 3 3 2 2 1 1 2 2 1 1 4 3 4 3 3 3 3 2 3 4 2 1 2 2 2 2 3 3 4 4 3 3 4 4 4 4 3
10 7 9 13 9 4 8 11 10 10 11 8 7 5 6 6 10 8 5 8 10 12 2 4 5 6 7 5 0 5 4 6 7 8 8 10 10 10 10 7 5 2 3 5 1 1 3 4 5 6 7 6 5 5 5 5 4 4 4 4 4 3 3 2 2 3 3 1 3 4 4 4 3 4 4 4 3 4 3 3 2 3 3 3 2 2 2 2 4 3 4 3 3 4 4 5 5
10 8 7 13 12 9 7 10 10 12 9 7 8 6 4 8 9 10 8 6 4 4 6 7 4 3 2 5 6 7 4 4 5 8 8 10 10 11 10 10 7 4 3 4 2 3 4 4 5 5 5 6 4 4 4 4 3 4 3 3 3 3 3 2 3 3 4 4 4 4 3 3 3 4 3 3 4 2 2 2 2 2 1 2 3 3 2 2 3 3 4 2 3 3 3 4 4
4 3 6 3 12 4 8 8 13 12 9 4 9 7 10 7 7 10 7 8 4 3 3 6 3 3 1 7 2 7 7 5 4 8 12 8 12 11 10 12 9 6 4 4 5 5 4 4 4 5 5 5 4 3 3 3 3 4 3 3 3 3 2 2 3 4 5 4 4 3 3 3 2 3 3 2 0 3 1 3 1 3 2 1 3 3 2 3 3 3 4 5 3 3 3 4 3
11 9 3 7 2 5 8 7 12 10 8 5 13 6 8 8 9 9 5 8 7 5 2 2 7 4 3 3 4 3 5 7 6 7 9 8 10 10 10 10 10 8 7 6 6 5 4 5 5 5 5 5 4 5 3 3 4 3 3 2 3 2 1 3 4 4 4 4 5 5 4 4 4 5 5 5 5 5 5 5 4 4 2 1 1 1 2 2 2 4 5 5 5 4 3 3 3
12 13 16 4 7 4 6 9 9 7 4 9 13 7 11 9 11 10 8 7 6 6 7 5 4 3 3 0 1 2 4 5 3 6 7 9 9 11 9 10 10 9 8 7 7 6 6 5 6 6 5 6 5 5 4 4 4 4 3 2 4 3 4 4 5 4 4 4 4 5 5 6 6 5 5 5 4 5 6 5 6 6 5 5 5 5 3 4 2 4 5 3 4 3 2 2 4
12 9 6 7 9 5 6 7 9 7 5 10 16 11 8 10 10 11 9 8 9 7 8 5 8 4 3 2 3 1 4 4 5 6 6 7 9 12 9 8 8 7 5 6 7 6 4 4 5 5 5 5 5 4 4 4 4 4 4 5 3 5 5 4 4 3 4 4 4 4 5 5 7 5 6 6 5 5 6 6 5 6 5 5 6 5 5 6 4 3 2 3 2 3 1 4 4
11 13 8 5 2 4 7 11 2 8 6 5 7 7 13 10 13 11 11 11 7 6 7 6 6 7 8 7 3 4 4 4 5 8 5 7 11 13 10 6 8 6 4 6 8 6 4 3 3 3 4 5 5 5 5 4 4 4 4 4 5 3 3 4 3 3 4 3 4 4 5 5 6 5 6 6 5 6 5 6 6 6 6 5 6 6 5 7 5 5 5 5 4 4 2 3 4
8 8 10 10 5 6 5 8 5 3 5 5 5 7 6 12 11 11 10 9 7 3 2 6 6 6 6 7 7 5 5 5 5 7 6 7 10 10 10 7 6 4 4 6 6 4 2 2 2 2 2 5 5 5 5 4 5 4 4 3 3 3 4 4 4 5 4 4 5 5 3 4 5 6 6 6 6 6 6 6 6 6 6 6 6 6 6 6 4 4 6 7 6 5 5 4 3
10 8 8 12 2 3 4 5 7 6 8 4 5 6 7 9 12 9 9 8 8 6 5 4 2 6 6 6 7 6 5 5 5 7 4 7 10 10 11 10 6 4 3 5 5 2 1 2 2 3 5 6 6 6 5 4 4 3 3 3 3 5 5 5 5 5 5 6 5 5 5 4 4 4 5 6 6 6 5 5 6 6 6 6 5 6 6 6 5 4 7 6 8 5 6 5 4
6 11 9 8 12 12 3 5 2 7 4 6 5 6 4 11 13 11 9 9 8 8 7 5 5 6 6 8 6 5 5 4 3 7 8 8 11 12 13 13 9 3 5 4 3 3 3 6 7 7 6 6 8 7 6 5 5 5 5 7 6 5 5 5 5 5 6 5 6 5 5 6 5 3 3 4 5 5 5 5 6 6 5 6 6 7 6 5 6 7 6 6 7 7 6 5 6
11 4 10 7 9 10 10 12 7 3 6 8 9 7 3 4 6 8 11 11 11 8 9 9 6 4 7 7 6 7 7 3 4 6 4 8 11 12 13 14 9 4 2 4 2 2 7 7 7 7 6 6 7 7 7 6 7 6 7 6 5 5 5 4 4 4 3 4 4 4 3 3 5 4 2 2 3 4 4 4 5 6 6 5 6 7 7 9 8 6 6 6 6 6 6 6 7
9 5 8 6 13 10 13 11 7 6 9 8 8 9 4 3 5 10 11 11 11 10 11 11 8 9 8 7 7 6 7 4 3 3 5 9 9 11 12 13 10 10 9 7 4 7 8 8 9 8 6 7 6 6 7 7 6 6 6 6 5 6 6 5 4 5 5 5 6 6 6 6 7 7 3 3 4 4 3 3 4 5 6 5 6 7 8 8 8 6 7 7 6 6 6 6 6
9 8 10 10 11 13 12 8 10 10 8 4 3 10 4 2 8 10 10 10 11 12 12 13 11 11 10 8 8 8 8 6 3 7 7 9 10 11 11 11 9 12 10 9 8 7 8 8 8 8 7 7 7 8 7 7 7 6 6 6 6 6 6 6 6 5 5 6 6 6 6 7 7 7 8 6 7 5 6 6 5 5 6 7 7 8 8 10 11 10 8 8 8 6 6 5 5
10 9 11 8 9 13 12 10 9 9 7 6 6 8 4 7 7 5 8 9 11 12 13 14 14 14 12 11 10 9 9 6 2 6 4 8 11 11 12 12 10 10 10 9 9 8 8 8 9 8 8 7 7 8 7 7 7 6 5 6 6 6 6 5 5 6 6 6 6 7 6 7 7 7 6 6 6 7 7 7 6 7 7 9 9 8 9 9 9 9 9 9 9 8 6 6 5
18 8 7 9 10 11 11 8 7 8 8 5 12 13 11 4 6 7 9 10 9 9 11 11 13 12 11 8 6 13 9 6 4 8 3 9 12 12 11 11 10 10 9 9 10 9 9 8 8 9 8 6 7 7 6 6 6 6 5 6 7 7 7 6 5 6 7 7 7 8 8 7 6 7 6 6 7 9 8 7 9 10 10 9 8 8 8 8 9 8 9 10 10 9 6 6 7
11 7 5 8 10 9 8 1 9 6 8 7 14 15 10 3 7 8 8 8 9 8 15 14 12 11 10 8 13 14 6 7 8 6 5 10 12 10 7 6 7 9 9 10 10 10 9 8 8 9 8 7 6 6 7 7 7 7 7 8 8 7 7 6 5 7 7 6 6 7 7 6 7 7 7 7 8 10 7 5 9 9 8 8 8 7 7 8 9 7 7 6 6 8 7 7 6
9 10 9 9 8 6 8 2 4 8 5 7 14 16 4 9 6 11 11 9 5 5 8 13 12 11 9 15 17 6 8 9 5 2 2 11 10 7 4 4 7 9 9 10 10 10 9 8 9 9 9 7 6 6 7 7 7 7 7 7 7 6 6 7 6 6 6 6 5 6 6 6 6 6 7 8 8 11 8 7 8 7 7 8 8 7 7 8 8 7 6 7 6 5 6 7 6
7 8 9 10 8 9 6 5 8 8 10 7 12 7 1 8 9 7 7 5 3 2 6 13 11 10 10 16 12 9 6 4 5 3 12 8 6 5 5 7 8 8 10 10 9 9 8 9 9 10 9 7 7 7 7 7 7 7 7 6 6 6 5 6 6 6 7 6 6 6 5 5 5 7 8 7 7 10 10 10 8 8 7 8 8 8 8 8 9 7 7 7 7 5 7 8 7
10 9 9 9 10 7 9 7 9 10 10 14 10 9 5 2 1 3 6 7 6 8 11 10 7 8 17 14 10 8 6 5 4 9 8 6 7 7 6 6 8 9 10 10 9 8 8 9 8 8 8 7 7 7 6 7 6 7 6 6 5 6 5 6 6 5 5 6 5 6 5 6 6 6 5 5 8 8 9 8 7 7 8 8 7 8 9 8 8 7 7 9 7 7 8 9 8
15 12 11 10 11 5 10 8 11 12 11 11 10 6 6 8 9 7 6 5 8 7 9 10 9 11 15 14 10 9 6 7 7 11 8 7 6 5 1 6 7 8 9 10 9 8 9 8 8 8 8 7 7 7 7 6 5 6 7 7 7 7 7 6 6 5 5 4 5 6 6 6 5 5 5 6 9 9 8 7 6 7 8 8 8 9 9 8 8 7 7 8 7 8 8 10 8
9 11 12 8 4 7 10 11 16 16 8 7 5 4 9 8 8 6 7 7 7 6 7 7 10 11 13 10 9 6 7 8 8 8 7 8 4 5 5 7 8 9 9 10 10 9 9 8 8 8 7 7 7 7 6 6 6 7 7 7 7 8 9 9 8 9 9 5 4 5 6 7 6 6 8 8 7 6 6 7 7 8 8 8 8 8 9 9 8 7 7 8 8 10 9 8 8
12 11 7 5 10 14 11 10 5 6 9 8 6 6 4 4 1 3 5 6 6 6 8 8 5 12 11 11 8 7 10 7 7 7 6 6 6 7 9 10 10 11 11 11 10 9 7 8 8 7 7 7 6 6 6 6 6 6 6 7 8 8 8 8 8 8 8 5 4 5 5 6 8 9 8 8 8 8 6 7 7 8 8 8 8 8 9 9 9 7 8 7 9 9 9 8 7
14 14 9 9 4 6 4 8 9 9 8 6 6 12 5 2 4 6 5 6 7 8 6 7 9 9 10 10 9 11 11 3 5 7 7 7 6 3 9 9 13 11 11 10 9 8 8 7 6 5 6 5 5 5 5 5 5 5 5 6 9 8 8 6 5 6 6 6 6 6 6 5 8 9 8 8 8 9 8 7 7 8 7 8 9 9 8 7 9 8 9 7 7 8 8 8 7
16 14 15 12 12 11 9 4 7 7 11 10 2 12 2 3 4 2 5 5 10 10 9 10 11 8 8 12 10 8 4 8 7 8 8 6 5 4 9 13 12 11 10 9 8 7 7 6 5 4 4 4 5 7 6 5 5 5 5 5 6 5 5 5 6 7 8 8 10 7 7 9 10 8 7 7 8 8 10 10 9 10 10 11 12 11 10 9 7 8 8 10 7 8 9 7 8
13 12 12 10 8 8 9 7 9 10 10 9 9 5 6 5 8 7 1 4 8 10 7 7 8 11 14 13 9 8 7 5 8 8 8 7 6 8 11 11 11 10 9 7 7 6 5 3 4 6 5 3 8 8 7 5 4 4 5 5 5 5 6 5 6 10 8 10 7 7 7 8 6 5 6 7 8 8 9 9 9 10 11 9 9 9 9 9 9 9 9 9 5 8 7 8 7
12 9 12 11 11 12 13 12 10 12 10 7 7 5 3 2 1 3 8 6 7 5 6 5 6 7 18 11 9 8 7 7 8 9 9 8 9 12 13 11 10 9 7 7 6 5 3 3 4 4 5 6 7 7 7 4 5 4 7 7 6 6 6 6 8 7 8 10 9 7 8 6 9 6 7 8 10 9 9 9 9 9 9 10 9 11 13 11 12 12 12 10 9 7 7 7 6
Wind_Direction
173 179 185 179 181 114 132 227 239 165 195 47 69 115 68 233 101 45 63 129 69 69 105 10 71 39 51 82 74 69 28 38 23 25 97 125 138 134 133 137 136 136 132 133 135 136 133 131 132 129 127 125 124 124 120 121 121 117 119 117 118 119 120 120 120 118 124 124 123 123 121 117 119 118 118 116 114 113 111 111 106 103 100 101 102 97 97 95 95 90 90 94 96 96 97 96 97
181 185 156 170 187 197 142 189 311 199 144 90 354 20 79 62 79 54 54 54 127 18 72 56 40 46 66 79 62 64 33 15 41 80 105 128 135 134 133 137 142 138 134 139 144 140 136 135 134 135 131 129 130 128 125 122 120 121 120 121 121 125 126 128 126 125 129 127 131 127 128 125 127 125 125 124 119 117 111 107 106 104 102 99 97 99 93 93 94 89 89 92 98 98 102 100 101
188 171 106 90 21 300 348 247 319 91 3 72 23 47 4 84 69 73 60 50 97 87 75 36 48 23 56 55 50 41 60 13 23 69 105 124 131 135 143 140 140 136 140 148 146 141 139 139 142 138 136 135 135 132 130 126 124 124 125 127 126 126 127 131 133 132 134 136 133 137 134 138 136 136 132 129 128 121 120 117 113 106 104 99 98 94 92 97 90 94 93 93 92 101 101 106 108
182 186 169 111 239 93 263 201 282 336 72 90 91 344 73 60 72 69 45 36 25 39 26 1 34 0 53 53 46 76 50 25 3 342 105 123 124 144 143 135 135 140 148 148 139 138 143 141 144 142 142 139 139 135 133 130 128 128 132 131 132 130 133 138 139 142 140 140 141 141 141 141 142 142 145 137 133 134 130 129 117 117 110 108 100 95 94 90 97 89 100 94 94 96 105 106 118
195 179 170 156 335 238 300 356 312 25 42 21 70 115 76 65 80 77 51 60 80 93 100 173 124 43 56 58 11 49 66 265 330 345 158 121 146 131 130 139 141 142 141 139 139 136 140 144 145 145 145 141 140 139 134 134 135 135 134 136 136 138 139 140 143 146 145 144 146 145 148 146 146 146 148 147 146 147 147 140 139 126 129 125 119 105 116 115 108 127 105 101 104 96 98 118 120
212 179 195 163 260 1 285 288 59 50 41 29 49 46 54 67 76 78 71 62 67 95 93 41 98 83 56 39 21 98 351 49 347 311 161 134 134 124 127 139 141 135 140 144 133 128 142 148 148 149 146 145 144 141 139 138 139 139 141 139 142 143 142 143 146 147 148 147 145 148 145 154 150 155 154 159 161 161 160 156 149 151 146 152 156 160 139 166 147 151 149 146 140 140 151 137 166
205 130 293 22 310 47 315 37 39 52 29 31 56 69 68 70 88 70 65 72 77 74 54 54 116 116 93 106 90 48 311 296 227 293 133 120 121 130 145 146 135 134 142 130 125 134 142 150 150 151 150 149 149 145 145 143 145 144 143 144 145 146 145 146 147 149 151 152 150 149 151 149 155 156 166 170 168 174 175 173 171 171 188 165 188 187 187 177 185 192 185 180 202 162 182 192 224
225 198 160 198 241 142 228 63 55 43 28 41 55 72 80 77 45 54 51 59 48 54 46 93 127 82 74 210 96 3 328 223 288 300 127 124 132 149 148 127 127 136 133 130 133 132 141 152 152 152 153 152 152 150 147 148 142 147 146 144 150 147 149 152 152 153 156 159 160 159 160 162 172 168 172 172 179 185 184 190 182 184 187 189 184 196 200 197 200 202 201 212 213 213 216 198 218
317 252 230 254 250 201 32 44 57 67 72 44 47 40 70 79 88 67 62 34 89 52 48 49 15 24 75 75 63 24 19 342 314 308 140 140 154 149 123 125 136 136 134 131 126 132 145 152 154 153 156 156 156 155 150 152 149 151 151 148 150 155 156 158 166 167 168 168 175 174 176 179 180 186 183 189 179 195 191 202 206 203 203 205 205 206 205 207 210 214 210 211 213 219 221 216 219
205 216 232 249 317 34 37 39 45 46 62 54 46 48 56 79 78 103 106 67 69 78 62 20 74 85 79 64 67 345 303 317 316 295 135 157 161 141 135 145 145 143 118 122 135 142 145 154 157 159 159 161 161 161 160 156 159 156 158 156 156 163 167 171 174 181 180 184 183 189 186 194 195 199 199 197 202 203 207 212 213 215 216 215 216 217 216 218 218 221 223 225 219 219 224 227 220
245 196 246 289 28 40 27 46 58 57 66 68 54 46 49 37 68 62 75 81 94 95 116 61 80 79 76 82 272 263 282 297 291 153 146 152 150 155 142 149 146 141 131 142 149 145 147 155 160 163 163 166 167 168 166 166 165 166 169 169 170 171 176 178 184 187 189 190 197 197 201 203 208 207 208 213 212 213 218 219 223 225 226 228 229 226 228 228 225 228 232 231 235 232 230 230 228
254 296 177 312 33 29 34 36 59 71 64 48 44 77 89 84 104 78 77 82 57 54 47 353 118 141 110 132 178 286 312 309 345 32 136 161 162 140 144 144 153 143 144 143 144 147 151 153 161 166 170 170 173 173 173 174 174 176 178 181 181 181 183 189 191 194 198 200 204 210 211 212 215 216 217 220 221 224 224 227 229 232 234 237 241 247 243 238 234 233 236 239 239 240 238 237 235
269 316 319 34 35 34 51 44 44 59 46 48 40 71 103 83 89 118 97 106 92 75 43 17 122 152 102 103 160 282 288 290 311 16 39 277 111 135 155 145 147 135 144 141 148 149 152 156 163 167 174 176 175 177 178 179 182 184 186 189 191 190 197 201 204 208 208 212 215 219 218 217 218 218 217 220 226 230 235 235 237 239 240 234 234 239 243 243 242 238 233 244 246 251 252 250 243
279 318 16 40 44 45 19 44 36 42 45 49 47 61 73 104 117 123 113 74 57 67 83 111 112 102 105 122 119 146 283 304 306 298 281 115 134 165 166 155 151 151 141 159 149 149 150 162 163 166 165 172 172 178 185 187 189 193 196 199 204 209 209 213 216 218 217 221 227 235 250 262 245 240 237 236 235 235 236 236 234 235 235 232 232 235 238 237 235 230 231 233 236 238 243 245 247
310 332 51 43 33 34 19 43 29 43 53 50 34 50 72 84 102 93 91 90 70 76 94 64 65 288 118 153 139 147 190 260 271 286 302 15 352 347 198 152 131 149 164 161 146 148 155 162 155 157 152 166 171 174 178 192 195 198 200 208 216 217 222 230 244 277 272 256 254 242 249 250 252 248 241 236 234 232 230 231 232 237 236 235 233 232 235 239 236 230 228 230 233 235 236 239 240
349 18 35 51 41 27 21 32 38 48 54 51 63 66 74 78 80 82 74 82 91 91 111 77 48 82 140 109 134 138 176 235 264 244 46 199 21 1 327 257 174 151 176 155 142 151 160 159 141 142 149 169 180 173 178 176 185 188 198 211 224 238 283 262 269 257 256 249 242 241 238 239 238 241 243 246 239 234 233 233 232 232 241 243 241 240 240 239 236 232 232 238 240 237 238 240 239
312 52 51 41 54 35 27 35 25 47 59 54 64 73 91 70 55 91 103 94 88 80 73 65 83 92 93 111 124 135 203 245 252 141 172 175 195 186 165 253 175 178 107 202 143 141 148 135 132 123 140 167 168 164 71 78 141 171 210 225 218 236 254 264 259 247 251 260 261 265 267 261 254 262 258 256 249 242 234 234 241 246 249 247 245 243 245 244 244 241 238 241 243 241 239 237 238
55 40 48 55 48 48 43 41 43 51 59 59 56 57 104 107 59 108 89 81 86 87 86 85 81 79 97 107 132 174 192 253 154 180 184 183 216 173 189 183 189 139 82 82 74 61 85 23 88 81 72 55 60 68 105 108 118 150 193 178 215 215 219 235 249 243 244 244 258 256 262 263 258 248 246 241 238 246 247 245 233 238 240 243 245 249 250 250 245 243 244 243 239 239 240 238 240
27 79 55 59 52 60 63 80 56 56 62 65 69 70 79 112 145 159 97 77 94 92 91 102 95 92 102 127 142 150 160 203 44 30 354 338 309 275 337 138 48 333 47 4 10 3 37 14 16 45 64 41 19 59 83 117 135 163 181 178 223 221 216 224 236 251 236 235 243 245 253 259 252 258 259 252 276 257 246 237 232 239 246 251 254 256 255 254 249 243 242 240 240 241 240 221 225
29 61 77 75 85 84 60 38 58 51 45 58 58 65 78 131 125 129 88 86 79 89 103 109 114 125 130 121 121 122 131 65 65 28 340 282 345 345 340 13 20 58 61 33 358 32 60 95 121 108 111 125 180 183 123 57 43 352 304 130 196 212 219 220 226 225 218 227 241 242 245 245 245 238 260 264 258 263 259 250 250 255 257 257 262 269 272 257 253 253 245 236 234 231 221 216 215
33 74 47 56 58 75 79 81 50 35 59 57 73 71 65 63 100 104 106 94 68 67 56 111 125 138 144 126 118 118 129 111 149 146 25 275 202 186 240 27 72 17 104 114 129 215 147 169 127 147 93 182 138 67 54 38 91 156 312 227 294 275 249 234 223 221 214 224 236 235 236 237 247 215 230 276 262 257 273 307 320 331 50 342 300 309 281 303 293 266 239 230 216 218 217 220 212
69 47 66 94 107 79 63 49 46 89 38 77 63 56 66 79 68 76 68 73 96 93 101 105 110 122 125 149 171 198 195 135 72 28 350 251 54 110 68 77 34 50 60 92 154 218 25 356 51 70 105 99 87 93 79 77 40 311 136 180 238 310 299 303 318 307 287 248 243 256 259 268 277 286 284 259 268 278 284 315 278 254 268 296 244 274 293 293 272 266 270 253 230 206 214 219 201
91 99 94 75 72 77 67 53 52 56 59 43 62 66 79 71 80 88 101 98 110 82 114 118 121 134 135 150 174 177 150 110 131 179 200 106 18 31 60 65 45 65 94 157 109 0 64 57 25 54 62 64 87 94 117 111 68 357 305 196 207 201 229 253 267 303 288 324 285 290 292 290 280 304 304 304 329 2 339 311 302 282 238 221 225 235 266 258 253 270 328 303 311 310 266 242 217
48 84 71 63 65 71 66 61 48 37 31 57 69 71 72 75 76 78 94 124 136 114 83 56 44 34 45 84 208 193 176 179 172 175 155 145 175 89 62 72 84 146 114 96 76 41 36 51 262 89 90 101 88 89 99 110 109 159 262 298 287 282 270 281 336 338 308 277 293 286 282 256 263 252 264 311 319 22 312 290 271 240 223 247 274 240 279 282 273 249 233 251 275 268 288 310 315
99 76 62 95 86 85 90 96 86 60 40 51 61 73 70 79 87 89 91 111 130 136 136 134 142 147 168 236 228 213 187 176 136 136 128 148 98 88 77 87 103 141 98 105 123 104 42 112 101 95 95 95 103 139 115 118 148 166 188 206 221 220 229 258 184 187 241 240 203 231 240 267 289 282 285 271 322 241 222 245 276 340 12 347 352 338 321 295 261 258 268 253 248 248 242 273 305
59 77 92 89 97 104 132 115 96 72 66 59 105 111 110 101 99 83 96 103 125 139 153 167 165 175 166 188 181 178 145 140 143 120 144 68 76 56 29 32 13 86 86 94 88 87 102 86 79 61 62 115 158 154 140 153 167 191 204 208 200 209 220 211 217 189 124 311 307 300 314 262 265 288 294 269 212 282 306 326 329 32 1 350 29 326 334 291 302 292 251 260 304 281 22 272 246
103 119 89 86 108 128 102 85 87 96 72 43 64 56 58 37 94 95 77 98 130 121 113 131 135 131 124 124 152 124 134 119 70 63 109 131 107 112 138 250 63 54 37 52 62 71 62 68 91 106 52 26 19 189 174 169 176 219 209 226 223 181 180 201 230 242 182 195 193 249 243 270 263 272 294 327 312 307 337 2 9 14 74 257 252 240 291 340 298 253 289 302 276 15 242 244 267
107 78 128 133 114 82 109 122 128 123 111 134 87 70 60 58 74 95 118 146 114 96 80 69 62 64 107 124 95 80 89 87 94 90 66 65 68 71 50 42 52 46 34 36 43 61 69 92 67 29 342 159 210 222 232 137 128 159 222 121 254 205 194 177 116 232 315 119 210 289 42 258 258 283 309 307 304 328 307 2 34 278 221 224 271 247 242 221 274 305 352 282 271 269 279 249 211
105 211 159 68 116 103 185 152 102 86 101 123 118 153 78 62 78 89 117 122 86 73 70 53 71 96 84 70 73 68 71 82 71 74 71 68 75 89 106 234 84 60 12 42 42 56 102 87 118 141 170 130 222 164 165 76 147 176 209 169 162 172 164 120 183 183 190 227 221 10 91 297 283 336 316 301 204 253 289 8 163 312 284 311 285 291 311 157 308 302 217 204 238 224 228 227 233
107 90 323 108 341 279 184 101 122 128 119 149 192 135 64 81 108 111 133 117 121 102 106 119 130 101 78 90 99 99 61 74 74 71 76 89 103 131 138 141 94 120 104 96 64 26 62 101 134 166 189 165 164 123 113 172 142 161 156 119 123 165 153 178 206 209 133 129 263 256 184 260 74 205 276 12 323 309 12 308 290 145 23 308 309 323 332 316 293 297 303 292 284 282 267 260 278
219 128 185 51 244 290 207 167 152 140 144 177 204 48 107 123 140 142 112 73 107 73 135 144 122 66 64 49 74 65 90 64 71 78 81 90 105 117 92 64 80 118 151 84 75 342 43 72 93 117 95 94 93 71 79 108 67 84 103 90 84 53 125 150 98 125 152 203 142 325 50 40 2 22 346 52 310 334 324 324 341 69 224 333 334 305 312 303 290 277 279 322 291 285 299 306 270
344 92 230 221 214 203 199 159 158 160 161 188 154 112 97 130 121 94 54 72 43 270 150 134 128 121 152 163 173 173 100 98 103 87 86 91 103 105 108 89 97 62 49 66 48 42 29 62 79 80 69 77 74 72 68 52 70 53 75 75 72 71 76 89 119 167 147 177 158 82 33 26 38 357 2 339 325 357 330 349 11 313 326 268 247 310 307 309 311 299 314 324 328 320 332 315 278
280 246 189 206 217 230 157 156 173 163 159 172 229 68 125 114 123 116 151 167 162 231 154 136 135 173 141 171 165 145 90 125 96 100 91 94 100 107 113 114 75 48 87 115 118 39 94 69 60 78 81 72 74 73 64 66 52 62 65 65 77 76 76 69 34 70 72 31 56 43 34 29 15 20 49 346 332 13 38 333 330 355 328 311 296 301 310 301 310 317 316 321 308 309 309 306 291
204 207 290 178 205 194 166 169 185 158 172 178 216 128 76 139 138 151 172 154 196 236 130 117 102 49 2 114 184 107 101 83 94 104 98 100 100 101 107 112 115 90 47 70 83 54 77 60 63 66 80 83 73 73 65 61 52 53 48 56 45 65 64 56 72 63 58 48 44 43 38 14 31 12 29 38 321 344 67 48 242 286 318 286 326 303 293 291 291 299 288 255 290 268 278 282 296
281 317 315 207 186 291 153 192 164 159 184 196 69 81 127 145 154 153 196 147 172 269 191 137 107 102 228 112 326 123 155 142 123 92 82 107 114 115 117 115 114 112 98 101 82 70 71 74 73 68 84 81 82 79 87 97 99 83 75 37 21 48 37 64 66 64 58 47 36 34 28 27 9 35 17 69 231 353 153 192 207 183 205 12 251 281 304 301 278 293 302 296 267 237 257 278 286
292 27 297 280 302 145 90 111 138 185 160 162 124 194 146 179 167 144 191 157 177 204 79 116 150 152 139 29 77 265 87 78 67 93 117 104 124 117 111 109 113 110 97 79 69 60 59 87 75 69 57 72 76 68 59 64 59 50 55 69 82 76 75 65 44 50 60 41 31 17 25 14 12 24 16 9 17 7 359 360 359 9 349 176 245 253 274 273 324 343 301 292 310 322 254 266 282
302 257 247 315 17 56 63 91 128 140 182 120 151 183 180 167 169 162 173 154 194 217 161 188 95 101 95 202 251 339 84 95 125 94 112 115 104 103 101 100 103 100 97 95 91 79 64 55 66 65 58 51 56 63 47 44 28 27 343 48 69 68 58 60 56 39 41 53 39 26 22 17 358 34 7 11 23 15 4 358 360 0 353 359 345 342 323 294 170 189 249 233 269 281 295 248 306
290 305 303 313 279 102 65 113 116 128 249 124 153 172 165 174 160 173 171 180 189 205 175 164 162 173 132 207 226 204 113 123 122 150 132 128 116 109 104 106 106 98 91 104 97 91 78 57 53 59 60 58 59 56 68 43 36 24 20 25 39 40 38 41 50 51 31 50 46 39 26 24 356 19 11 352 22 26 11 360 358 350 358 351 342 333 339 329 336 352 346 325 309 322 304 33 320
279 292 313 269 347 75 130 96 56 144 254 118 187 199 173 177 172 168 178 182 191 217 173 207 170 186 162 169 203 161 171 167 169 116 137 125 118 109 109 102 92 99 108 101 99 101 87 77 60 58 64 61 56 54 50 48 41 31 34 39 17 67 51 41 46 47 44 30 55 47 33 27 5 5 19 360 13 15 16 3 359 345 349 344 339 336 345 340 347 343 356 347 341 346 345 147 234
293 275 262 300 68 279 134 202 145 130 278 144 188 242 143 170 165 172 180 193 169 230 316 194 188 202 174 170 185 182 197 161 182 143 146 138 117 107 105 104 102 114 120 99 83 73 96 123 138 119 110 72 62 55 56 44 42 33 23 38 65 40 40 30 17 36 42 13 31 20 45 31 21 358 18 8 9 13 10 3 1 344 338 353 344 333 342 335 324 355 6 349 348 351 353 349 346
244 261 303 261 349 20 5 102 179 176 200 170 213 234 149 181 165 184 190 188 183 177 179 313 309 169 153 177 192 177 195 190 181 123 160 139 120 113 112 110 89 52 19 99 107 113 179 171 150 102 77 77 71 56 48 43 37 54 35 6 26 43 40 35 24 13 15 7 16 3 15 16 35 4 15 12 10 7 8 359 3 345 341 348 345 329 329 323 323 27 14 352 349 353 343 342 356
326 276 287 353 1 294 334 128 188 213 209 168 234 256 189 180 169 184 173 174 195 185 189 166 244 142 160 204 163 164 156 221 181 156 175 132 118 117 119 107 92 55 345 6 103 167 161 93 78 76 69 61 59 49 44 34 29 24 30 32 23 23 35 16 22 14 7 6 359 2 359 359 360 359 3 26 8 9 1 3 355 342 350 334 341 325 314 328 359 23 16 355 341 350 341 332 350
264 42 326 344 319 302 301 274 232 198 195 201 202 233 82 197 163 180 170 190 193 186 210 182 172 183 185 198 178 156 149 176 211 148 159 138 123 124 122 109 107 101 283 292 288 86 84 80 74 66 66 67 61 55 44 34 36 27 28 39 36 19 25 32 348 31 7 4 347 333 349 354 333 319 3 29 34 4 354 7 349 342 355 335 350 335 351 352 354 6 5 347 343 344 342 345 360
274 64 284 316 274 291 291 305 297 291 279 129 198 221 148 167 244 189 180 202 191 186 200 195 177 212 203 194 178 161 134 133 45 335 199 142 137 124 122 118 124 152 181 192 144 88 80 80 81 73 66 61 59 58 52 47 45 35 34 30 20 17 19 359 357 26 5 1 349 356 2 7 344 325 4 17 40 356 345 16 345 359 352 350 357 356 352 351 346 357 360 340 350 350 346 355 358
254 234 192 259 293 312 317 311 279 292 311 287 287 288 90 93 165 185 200 196 203 194 198 203 198 205 203 200 199 155 120 113 223 217 174 124 120 118 112 105 122 135 127 116 108 99 92 89 79 74 67 64 61 58 56 48 45 36 28 26 20 13 3 11 354 19 9 356 353 358 2 14 339 342 6 360 14 2 12 6 359 12 356 5 2 3 352 354 347 360 352 354 357 349 352 347 358
269 284 333 335 293 270 271 274 295 292 300 306 255 296 294 122 134 187 190 224 213 206 200 203 201 206 192 196 184 114 76 41 283 262 159 121 109 107 112 116 124 114 112 109 106 101 94 86 81 75 66 59 55 54 52 53 47 37 38 30 24 12 5 5 359 4 3 357 354 1 4 359 347 351 353 2 359 11 8 1 359 9 6 12 9 1 356 353 357 360 354 358 356 357 349 348 344
291 359 324 287 265 248 249 269 306 320 273 313 335 314 297 78 274 187 189 212 211 201 185 200 206 198 187 177 130 88 70 41 344 299 268 120 113 105 111 115 112 116 119 120 110 103 99 90 87 81 75 66 60 56 53 54 47 36 28 24 19 12 5 357 354 10 5 359 4 1 360 348 353 344 341 8 9 6 5 359 6 5 17 12 6 1 360 1 2 354 3 6 357 347 340 341 339
295 290 266 270 276 272 256 353 30 348 310 306 288 274 252 262 201 212 218 200 222 181 179 196 196 184 175 149 100 88 127 174 212 216 194 114 85 68 54 63 117 121 124 116 112 109 104 102 95 89 78 70 60 55 51 43 40 33 23 22 18 8 2 346 359 17 9 354 6 357 347 349 353 341 351 9 10 356 358 1 21 16 10 9 6 2 360 9 4 358 8 358 356 339 337 348 333
242 256 260 279 293 304 275 337 248 223 265 287 279 276 314 59 129 156 192 202 218 266 185 182 176 171 171 99 83 159 181 174 185 188 66 48 42 51 71 189 154 129 123 120 116 110 106 101 93 84 76 66 59 52 52 50 43 33 26 17 15 357 7 333 22 5 11 344 5 355 348 355 340 355 355 8 359 356 346 23 19 18 9 14 9 3 9 12 1 355 3 352 352 349 334 343 339
238 222 241 258 261 273 313 283 263 274 259 269 280 322 302 148 91 140 150 155 147 238 149 147 166 172 145 107 130 165 172 158 148 65 55 78 116 125 196 202 136 127 120 113 111 107 107 95 88 81 74 63 56 51 43 46 42 36 25 24 6 350 4 334 30 9 360 351 4 353 354 347 336 11 354 9 351 4 3 6 11 14 15 18 11 10 9 14 358 355 1 349 356 359 353 350 347
223 226 242 244 256 280 283 292 302 311 290 255 217 265 47 5 339 43 92 90 92 93 119 143 138 139 107 117 132 142 145 140 143 93 106 138 146 158 206 142 130 124 117 108 99 93 94 95 89 83 78 67 60 49 42 43 40 35 25 20 17 351 355 3 19 17 343 8 11 345 359 344 7 356 2 351 21 15 11 353 9 20 16 22 9 12 9 12 353 1 1 343 6 7 359 353 354
273 265 207 230 258 273 268 299 291 277 298 321 330 4 98 101 135 134 119 114 93 90 130 130 138 129 115 120 141 130 150 138 101 105 131 146 150 161 227 128 114 114 117 104 99 103 95 85 82 77 67 63 55 50 44 31 35 41 23 18 23 3 5 13 6 4 339 28 4 352 7 341 17 341 2 12 19 14 1 351 6 28 29 20 15 12 5 11 352 7 356 340 19 6 360 356 355
218 247 263 261 274 271 273 255 250 264 279 294 5 137 97 120 92 82 86 122 110 104 131 131 134 134 132 127 124 109 137 121 92 136 142 146 150 178 170 133 138 130 114 103 98 94 96 88 78 68 63 61 51 46 42 31 27 39 26 21 29 13 11 16 3 1 342 18 13 11 4 341 359 9 22 10 359 15 348 13 12 20 29 22 14 13 4 5 352 0 354 345 30 7 358 352 355
265 258 260 252 241 240 233 247 260 289 293 303 288 95 132 99 14 105 121 124 145 124 134 141 178 141 143 119 104 105 87 67 113 132 145 143 165 200 163 152 136 105 102 102 103 101 78 76 75 73 71 69 67 56 45 42 27 42 27 20 31 19 13 13 358 357 343 352 35 20 5 341 23 25 20 13 359 6 355 26 15 21 25 26 15 11 4 7 350 4 352 345 28 7 354 347 354
232 249 286 267 229 275 304 329 298 293 278 275 303 98 73 20 125 173 150 175 144 115 122 162 178 172 144 110 112 87 72 85 146 141 145 153 169 225 156 145 117 108 106 102 98 90 87 79 78 99 103 101 87 72 65 41 44 35 34 32 30 17 9 12 353 357 341 326 34 31 7 342 36 20 22 18 16 10 7 10 27 16 17 23 14 15 356 16 357 1 352 343 32 11 352 348 353
232 233 242 250 275 288 299 242 281 254 269 279 229 117 176 127 87 23 176 180 134 152 168 178 168 164 129 96 60 70 149 203 176 150 143 137 145 100 105 104 117 118 106 95 91 91 98 103 117 126 148 109 84 65 51 36 29 30 35 38 47 21 3 358 5 357 358 344 33 27 13 11 32 14 18 24 29 24 14 4 18 18 18 25 15 8 3 0 2 357 346 335 31 21 355 349 353
206 223 237 240 255 288 285 270 261 287 298 300 310 266 98 52 11 358 123 133 131 137 152 161 179 167 104 86 112 152 175 170 150 143 128 122 111 100 103 104 96 91 94 85 73 70 79 139 136 130 109 60 77 67 49 25 18 51 22 40 50 43 2 351 14 12 7 351 35 19 19 22 22 18 3 26 21 28 23 2 14 23 26 24 16 6 1 356 355 2 346 330 34 26 357 352 340
272 240 219 226 241 234 230 242 238 246 252 253 271 34 116 259 288 60 72 76 91 111 145 187 143 108 96 106 145 163 161 140 140 119 108 114 117 102 101 100 105 104 73 64 78 89 92 79 71 39 59 63 65 53 63 11 8 348 53 29 18 37 357 18 19 31 12 358 14 19 19 18 19 10 14 24 26 24 20 4 12 31 29 28 17 22 11 6 1 356 348 348 351 25 353 351 334